Lander, WY

4:20 AM MDT on April 27, 2017 (GMT -0600)
Hunt

Weather History for KLND - November, 2013

Change the Weather History Date:

Wednesday, November 20, 2013

  Actual Average Record
Temperature  
Mean Temperature 36 °F 29 °F  
Max Temperature 55 °F 40 °F 62 °F (1962)
Min Temperature 16 °F 17 °F -15 °F (1929)
Degree Days  
Heating Degree Days 29 36  
Month to date heating degree days 544 620  
Since 1 July heating degree days 1489 1481  
Cooling Degree Days 0 0  
Month to date cooling degree days 0 0  
Year to date cooling degree days 743 472  
Moisture  
Dew Point 19 °F    
Average Humidity 61    
Maximum Humidity 92    
Minimum Humidity 30    
Precipitation  
Precipitation 0.06 in 0.03 in 0.70 in (1945)
Month to date precipitation 0.06 0.61  
Year to date precipitation 14.78 11.83  
Snow  
Snow 1.00 in 0.50 in - ()
Month to date snowfall 1.0 8.7  
Since 1 July snowfall 27.0 21.2  
Since 1 September snowfall 27.0 21.2  
Snow Depth 1.00 in    
Sea Level Pressure  
Sea Level Pressure 29.93 in    
Wind  
Wind Speed 6 mph (ENE)    
Max Wind Speed 26 mph    
Max Gust Speed 32 mph    
Visibility 7 miles    
Events Snow    
T = Trace of Precipitation, MM = Missing Value Source: NWS Daily Summary

Daily Weather History Graph

Daily Weather History Graph

Search for Another Location

Airport or City:

Trip Planner

Search our weather history database for the weather conditions in past years. The results will help you decide how hot, cold, wet, or windy it might be!

Date:

Astronomy

Nov. 20, 2013 Rise Set
Actual Time 7:13 AM MST 4:47 PM MST
Civil Twilight 6:42 AM MST 5:18 PM MST
Nautical Twilight 6:07 AM MST 5:52 PM MST
Astronomical Twilight 5:34 AM MST 6:26 PM MST
Moon 7:33 PM MST (11/20) 9:41 AM MST (11/20)
Length of Visible Light 10h 35m
Length of Day
9h 34m
Waning Gibbous, 91% of the Moon is Illuminated
Nov 20
Waning Gibbous
Nov 25
Last Quarter
Dec 2
New
Dec 9
First Quarter
Dec 17
Full

Hourly Weather History & Observations

Time (MST) Temp. Windchill Dew Point Humidity Pressure Visibility Wind Dir Wind Speed Gust Speed Precip Events Conditions
12:53 AM 30.0 °F 24.1 °F 23.0 °F 75% 29.78 in 10.0 mi SSE 5.8 mph - N/A   Clear
1:53 AM 34.0 °F - 24.1 °F 67% 29.75 in 10.0 mi Calm Calm - N/A   Clear
2:53 AM 32.0 °F 28.7 °F 23.0 °F 69% 29.76 in 10.0 mi East 3.5 mph - N/A   Clear
3:53 AM 30.0 °F 22.4 °F 21.9 °F 72% 29.76 in 10.0 mi NNW 8.1 mph - N/A   Clear
4:53 AM 30.9 °F 25.2 °F 23.0 °F 72% 29.77 in 10.0 mi SW 5.8 mph - N/A   Clear
5:53 AM 26.1 °F - 19.9 °F 78% 29.80 in 10.0 mi Calm Calm - N/A   Clear
6:53 AM 27.0 °F 23.0 °F 21.0 °F 78% 29.81 in 10.0 mi SSE 3.5 mph - N/A   Clear
7:53 AM 30.0 °F 25.2 °F 21.9 °F 72% 29.79 in 10.0 mi NW 4.6 mph - N/A   Clear
8:53 AM 35.1 °F 30.1 °F 25.0 °F 67% 29.77 in 10.0 mi NNW 5.8 mph - N/A   Clear
9:53 AM 39.9 °F 33.4 °F 25.0 °F 55% 29.75 in 10.0 mi NNW 10.4 mph - N/A   Clear
10:53 AM 48.0 °F - 24.1 °F 39% 29.72 in 10.0 mi Variable 4.6 mph - N/A   Clear
11:53 AM 50.0 °F - 25.0 °F 38% 29.69 in 10.0 mi ENE 5.8 mph - N/A   Clear
12:53 PM 53.1 °F - 25.0 °F 34% 29.68 in 10.0 mi NNE 6.9 mph - N/A   Clear
1:53 PM 52.0 °F - 21.9 °F 31% 29.66 in 10.0 mi West 11.5 mph - N/A   Partly Cloudy
2:53 PM 48.9 °F - 21.9 °F 35% 29.68 in 10.0 mi West 6.9 mph - N/A   Partly Cloudy
3:53 PM 46.9 °F - 21.9 °F 37% 29.71 in 10.0 mi SSE 4.6 mph - N/A   Clear
4:53 PM 43.0 °F - 23.0 °F 45% 29.77 in 10.0 mi North - - N/A   Partly Cloudy
5:53 PM 28.0 °F 21.7 °F 17.1 °F 63% 30.01 in 10.0 mi NW 5.8 mph - N/A   Mostly Cloudy
6:53 PM 27.0 °F 23.0 °F 18.0 °F 69% 30.09 in 10.0 mi Variable 3.5 mph - N/A   Overcast
7:15 PM 26.1 °F 15.6 °F 17.1 °F 69% 30.01 in 9.0 mi East 11.5 mph - N/A   Overcast
7:53 PM 23.0 °F 13.1 °F 17.1 °F 78% 30.14 in 10.0 mi East 9.2 mph - N/A   Overcast
8:33 PM 21.0 °F 8.6 °F 15.1 °F 78% 30.07 in 2.5 mi ESE 12.7 mph - 0.00 in Snow Light Snow
8:41 PM 21.0 °F 9.3 °F 15.1 °F 78% 30.08 in 3.0 mi East 11.5 mph - 0.00 in Snow Light Snow
8:53 PM 19.9 °F 7.9 °F 14.0 °F 78% 30.18 in 2.5 mi ESE 11.5 mph - 0.00 in Snow Light Snow
9:01 PM 19.9 °F 7.9 °F 14.0 °F 78% 30.09 in 1.8 mi ESE 11.5 mph - 0.00 in Snow Light Snow
9:53 PM 19.0 °F 10.0 °F 15.1 °F 85% 30.19 in 1.0 mi ENE 6.9 mph - 0.02 in Snow Light Snow
10:18 PM 18.0 °F 12.7 °F 16.0 °F 92% 30.12 in 1.8 mi ENE 3.5 mph - 0.00 in Snow Light Snow
10:41 PM 18.0 °F - 15.1 °F 88% 30.13 in 1.0 mi Calm Calm - 0.01 in Snow Light Snow
10:51 PM 17.6 °F - 15.8 °F 93% 30.13 in 0.8 mi Calm Calm - 0.01 in Snow Light Snow
10:53 PM 18.0 °F 12.7 °F 16.0 °F 92% 30.19 in 0.8 mi NE 3.5 mph - 0.02 in Snow Light Snow
11:29 PM 16.0 °F - 14.0 °F 92% 30.14 in 1.0 mi North - - 0.01 in Snow Light Snow
11:48 PM 15.8 °F 7.2 °F 14.0 °F 93% 30.15 in 1.2 mi NE 5.8 mph - 0.02 in Snow Light Snow
11:53 PM 16.0 °F 6.3 °F 14.0 °F 92% 30.21 in 1.2 mi NE 6.9 mph - 0.02 in Snow Light Snow